TimeMST,TemperatureF,Dew PointF,Humidity,Sea Level PressureIn,VisibilityMPH,Wind Direction,Wind SpeedMPH,Gust SpeedMPH,PrecipitationIn,Events,Conditions,WindDirDegrees,DateUTC
12:53 AM,21.9,10.9,63,30.14,10.0,SSW,11.5,-,N/A,,Clear,200,2012-12-29 07:53:00
1:53 AM,21.0,10.9,65,30.13,10.0,SSW,11.5,-,N/A,,Clear,200,2012-12-29 08:53:00
2:53 AM,23.0,12.0,63,30.12,10.0,SSW,12.7,-,N/A,,Clear,200,2012-12-29 09:53:00
3:53 AM,21.9,12.0,66,30.13,10.0,SSW,9.2,-,N/A,,Clear,210,2012-12-29 10:53:00
4:53 AM,24.1,12.9,62,30.12,10.0,SSW,12.7,-,N/A,,Clear,200,2012-12-29 11:53:00
5:53 AM,23.0,12.9,65,30.13,10.0,SSW,12.7,-,N/A,,Clear,200,2012-12-29 12:53:00
6:53 AM,23.0,12.0,63,30.13,10.0,SSW,12.7,-,N/A,,Clear,210,2012-12-29 13:53:00
7:53 AM,25.0,14.0,63,30.12,10.0,SSW,10.4,-,N/A,,Mostly Cloudy,200,2012-12-29 14:53:00
8:53 AM,27.0,14.0,58,30.10,10.0,SSW,15.0,-,N/A,,Clear,200,2012-12-29 15:53:00
9:53 AM,28.0,14.0,56,30.11,10.0,SSW,15.0,-,N/A,,Clear,210,2012-12-29 16:53:00
10:53 AM,30.0,15.1,54,30.11,10.0,SSW,17.3,-,N/A,,Clear,210,2012-12-29 17:53:00
11:53 AM,30.0,17.1,59,30.09,10.0,SSW,12.7,-,N/A,,Clear,210,2012-12-29 18:53:00
12:53 PM,30.0,16.0,56,30.05,10.0,SSW,16.1,-,N/A,,Clear,200,2012-12-29 19:53:00
1:53 PM,30.9,16.0,54,30.04,10.0,SSW,15.0,-,N/A,,Clear,210,2012-12-29 20:53:00
2:53 PM,30.0,15.1,54,30.04,10.0,SW,15.0,-,N/A,,Clear,220,2012-12-29 21:53:00
3:53 PM,30.9,15.1,52,30.05,10.0,SW,16.1,-,N/A,,Clear,220,2012-12-29 22:53:00
4:53 PM,28.0,12.9,53,30.06,10.0,SW,11.5,-,N/A,,Mostly Cloudy,220,2012-12-29 23:53:00
5:53 PM,26.1,14.0,60,30.07,10.0,SSW,10.4,-,N/A,,Mostly Cloudy,210,2012-12-30 00:53:00
6:53 PM,23.0,12.9,65,30.09,10.0,SSW,9.2,-,N/A,,Partly Cloudy,210,2012-12-30 01:53:00
7:53 PM,23.0,12.9,65,30.11,10.0,North,3.5,-,N/A,,Mostly Cloudy,350,2012-12-30 02:53:00
8:53 PM,24.1,15.1,69,30.10,5.0,Calm,Calm,-,0.00,Snow,Light Snow,0,2012-12-30 03:53:00
9:04 PM,24.8,17.6,74,29.95,1.5,Calm,Calm,-,0.00,Snow,Light Snow,0,2012-12-30 04:04:00
9:11 PM,24.8,17.6,74,29.95,1.0,Calm,Calm,-,0.01,Snow,Light Snow,0,2012-12-30 04:11:00
9:34 PM,24.8,19.4,80,29.95,6.0,South,5.8,-,0.02,Snow,Light Snow,180,2012-12-30 04:34:00
9:53 PM,25.0,19.9,81,30.11,8.0,South,5.8,-,0.02,,Overcast,190,2012-12-30 04:53:00
10:53 PM,25.0,21.0,85,30.11,6.0,SSW,6.9,-,0.00,Snow,Light Snow,210,2012-12-30 05:53:00
11:53 PM,25.0,21.0,85,30.11,3.0,SW,9.2,-,0.00,Snow,Light Snow,230,2012-12-30 06:53:00